| time (UTC) | temp F | wind direction | speed knots | gust knots | rain 1hr in | rain 24hr in | rain mn in | humidity % | barometer mb |
| 20260906230057 | 80 | 123 | 3.5 | 9.6 | 0.00 | 0.00 | 0.00 | 46 | 1012.2 |
| 20260906224548 | 79 | 146 | 6.1 | 12.2 | 0.00 | 0.00 | 0.00 | 48 | 1012.1 |
| 20260906223046 | 79 | 126 | 4.3 | 12.2 | 0.00 | 0.00 | 0.00 | 48 | 1012.2 |
| 20260906221552 | 79 | 105 | 3.5 | 7.8 | 0.00 | 0.00 | 0.00 | 48 | 1012.6 |
| 20260906220042 | 79 | 120 | 1.7 | 10.4 | 0.00 | 0.00 | 0.00 | 47 | 1012.8 |
| 20260906214543 | 79 | 79 | 3.5 | 7.8 | 0.00 | 0.00 | 0.00 | 48 | 1012.7 |
| 20260906213049 | 78 | 61 | 4.3 | 9.6 | 0.00 | 0.00 | 0.00 | 49 | 1012.8 |
| 20260906211543 | 78 | 143 | 3.5 | 6.1 | 0.00 | 0.00 | 0.00 | 49 | 1013.0 |
| 20260906210055 | 78 | 120 | 1.7 | 7.8 | 0.00 | 0.00 | 0.00 | 50 | 1013.2 |
| 20260906204601 | 77 | 130 | 4.3 | 11.3 | 0.00 | 0.00 | 0.00 | 53 | 1013.4 |
| 20260906203043 | 76 | 70 | 4.3 | 8.7 | 0.00 | 0.00 | 0.00 | 54 | 1013.6 |
| 20260906201601 | 75 | 121 | 6.1 | 10.4 | 0.00 | 0.00 | 0.00 | 55 | 1013.7 |
| 20260906200049 | 75 | 98 | 5.2 | 13.9 | 0.00 | 0.00 | 0.00 | 56 | 1013.9 |
| 20260906194546 | 76 | 124 | 4.3 | 7.0 | 0.00 | 0.00 | 0.00 | 55 | 1014.2 |
| 20260906193051 | 75 | 79 | 3.5 | 8.7 | 0.00 | 0.00 | 0.00 | 56 | 1014.6 |
| 20260906191551 | 74 | 69 | 2.6 | 7.8 | 0.00 | 0.00 | 0.00 | 57 | 1014.9 |
| 20260906190049 | 75 | 106 | 1.7 | 8.7 | 0.00 | 0.00 | 0.00 | 57 | 1015.0 |
| 20260906184553 | 73 | 59 | 2.6 | 7.0 | 0.00 | 0.00 | 0.00 | 59 | 1015.2 |
| 20260906183042 | 73 | 89 | 1.7 | 5.2 | 0.00 | 0.00 | 0.00 | 59 | 1015.7 |
| 20260906181554 | 70 | 67 | 0.9 | 5.2 | 0.00 | 0.00 | 0.00 | 63 | 1015.9 |
| 20260906180105 | 70 | 320 | 0.9 | 2.6 | 0.00 | 0.00 | 0.00 | 61 | 1016.1 |
| 20260906174551 | 70 | 290 | 0.9 | 4.3 | 0.00 | 0.00 | 0.00 | 61 | 1016.4 |
| 20260906173056 | 68 | 225 | 1.7 | 4.3 | 0.00 | 0.00 | 0.00 | 64 | 1016.8 |
| 20260906171600 | 67 | 191 | 0.9 | 5.2 | 0.00 | 0.00 | 0.00 | 66 | 1017.1 |
| 20260906164550 | 64 | 295 | 2.6 | 7.0 | 0.00 | 0.00 | 0.00 | 68 | 1017.4 |
| 20260906163046 | 64 | 251 | 3.5 | 7.8 | 0.00 | 0.00 | 0.00 | 68 | 1017.6 |
| 20260906161542 | 63 | 228 | 1.7 | 7.8 | 0.00 | 0.00 | 0.00 | 69 | 1017.7 |
| 20260906160049 | 62 | 258 | 3.5 | 9.6 | 0.00 | 0.00 | 0.00 | 71 | 1017.8 |
| 20260906154543 | 61 | 272 | 5.2 | 9.6 | 0.00 | 0.00 | 0.00 | 73 | 1017.9 |
| 20260906153043 | 61 | 305 | 2.6 | 8.7 | 0.00 | 0.00 | 0.00 | 75 | 1017.9 |
| 20260906151551 | 60 | 284 | 2.6 | 5.2 | 0.00 | 0.00 | 0.00 | 76 | 1017.9 |
| 20260906150047 | 60 | 330 | 0.9 | 3.5 | 0.00 | 0.00 | 0.00 | 78 | 1017.9 |
| 20260906144545 | 59 | 274 | 0.9 | 4.3 | 0.00 | 0.00 | 0.00 | 75 | 1017.9 |
| 20260906143043 | 58 | 167 | 3.5 | 6.1 | 0.00 | 0.00 | 0.00 | 74 | 1017.9 |
| 20260906141542 | 59 | 136 | 1.7 | 2.6 | 0.00 | 0.00 | 0.00 | 74 | 1017.8 |
| 20260906140049 | 58 | 0 | 0.0 | 1.7 | 0.00 | 0.00 | 0.00 | 76 | 1017.6 |
| 20260906134544 | 57 | 139 | 0.9 | 3.5 | 0.00 | 0.00 | 0.00 | 76 | 1017.5 |
| 20260906133055 | 56 | 116 | 1.7 | 3.5 | 0.00 | 0.00 | 0.00 | 78 | 1017.4 |
| 20260906131551 | 56 | 90 | 1.7 | 3.5 | 0.00 | 0.00 | 0.00 | 78 | 1017.4 |
| 20260906130053 | 57 | 75 | 1.7 | 2.6 | 0.00 | 0.00 | 0.00 | 78 | 1017.4 |
| 20260906124547 | 58 | 79 | 0.9 | 3.5 | 0.00 | 0.00 | 0.00 | 78 | 1017.4 |
| 20260906123045 | 59 | 92 | 1.7 | 3.5 | 0.00 | 0.00 | 0.00 | 76 | 1017.5 |
| 20260906121556 | 58 | 70 | 1.7 | 4.3 | 0.00 | 0.00 | 0.00 | 76 | 1017.4 |
| 20260906114551 | 58 | 81 | 2.6 | 7.0 | 0.00 | 0.00 | 0.00 | 75 | 1017.3 |
| 20260906113047 | 58 | 87 | 1.7 | 6.1 | 0.00 | 0.00 | 0.00 | 75 | 1017.4 |
| 20260906111542 | 57 | 84 | 2.6 | 5.2 | 0.00 | 0.00 | 0.00 | 75 | 1017.3 |
| 20260906110045 | 57 | 96 | 3.5 | 7.8 | 0.00 | 0.00 | 0.00 | 75 | 1017.4 |
| 20260906104545 | 56 | 105 | 3.5 | 8.7 | 0.00 | 0.00 | 0.00 | 75 | 1017.4 |
| 20260906103045 | 55 | 91 | 4.3 | 7.8 | 0.00 | 0.00 | 0.00 | 74 | 1017.5 |
| 20260906101554 | 55 | 68 | 4.3 | 7.8 | 0.00 | 0.00 | 0.00 | 73 | 1017.6 |
| 20260906100047 | 55 | 83 | 5.2 | 8.7 | 0.00 | 0.00 | 0.00 | 71 | 1017.6 |
| 20260906094544 | 55 | 94 | 1.7 | 2.6 | 0.00 | 0.00 | 0.00 | 69 | 1017.5 |
| 20260906093050 | 56 | 89 | 0.0 | 1.7 | 0.00 | 0.00 | 0.00 | 67 | 1017.7 |
| 20260906091546 | 56 | 84 | 0.0 | 1.7 | 0.00 | 0.00 | 0.00 | 66 | 1017.6 |
| 20260906090059 | 56 | 98 | 2.6 | 5.2 | 0.00 | 0.00 | 0.00 | 65 | 1017.7 |
| 20260906084553 | 56 | 84 | 3.5 | 8.7 | 0.00 | 0.00 | 0.00 | 63 | 1017.6 |
| 20260906083052 | 57 | 78 | 4.3 | 10.4 | 0.00 | 0.00 | 0.00 | 62 | 1017.8 |
| 20260906081546 | 58 | 68 | 5.2 | 7.8 | 0.00 | 0.00 | 0.00 | 61 | 1017.9 |
| 20260906080107 | 57 | 78 | 4.3 | 7.8 | 0.00 | 0.00 | 0.00 | 62 | 1017.8 |
| 20260906074558 | 58 | 79 | 4.3 | 8.7 | 0.00 | 0.00 | 0.00 | 61 | 1018.1 |
| 20260906073048 | 57 | 82 | 0.9 | 1.7 | 0.00 | 0.00 | 0.00 | 62 | 1018.3 |
| 20260906071557 | 57 | 121 | 1.7 | 1.7 | 0.00 | 0.00 | 0.00 | 63 | 1018.2 |
| 20260906070051 | 58 | 122 | 1.7 | 3.5 | 0.00 | 0.00 | 0.00 | 62 | 1018.3 |
| 20260906064545 | 58 | 119 | 2.6 | 3.5 | 0.00 | 0.00 | 0.00 | 61 | 1018.3 |
| 20260906063053 | 60 | 114 | 0.9 | 1.7 | 0.00 | 0.00 | 0.00 | 58 | 1018.2 |
| 20260906061544 | 61 | 0 | 0.0 | 1.7 | 0.00 | 0.00 | 0.00 | 54 | 1018.2 |
| 20260906060052 | 62 | 105 | 0.0 | 4.3 | 0.00 | 0.00 | 0.00 | 53 | 1018.2 |
| 20260906054546 | 62 | 50 | 0.0 | 3.5 | 0.00 | 0.00 | 0.00 | 53 | 1018.0 |
| 20260906053050 | 62 | 18 | 1.7 | 4.3 | 0.00 | 0.00 | 0.00 | 53 | 1018.1 |
| 20260906051543 | 63 | 0 | 0.0 | 1.7 | 0.00 | 0.00 | 0.00 | 53 | 1018.2 |
| 20260906050051 | 64 | 0 | 0.0 | 1.7 | 0.00 | 0.00 | 0.00 | 50 | 1018.2 |
| 20260906044546 | 64 | 56 | 0.0 | 2.6 | 0.00 | 0.00 | 0.00 | 48 | 1018.1 |
| 20260906043043 | 65 | 0 | 0.9 | 5.2 | 0.00 | 0.00 | 0.00 | 46 | 1018.2 |
| 20260906041554 | 66 | 91 | 1.7 | 5.2 | 0.00 | 0.00 | 0.00 | 45 | 1018.1 |
| 20260906040047 | 66 | 85 | 0.9 | 4.3 | 0.00 | 0.00 | 0.00 | 45 | 1017.9 |
| 20260906034547 | 66 | 51 | 3.5 | 6.1 | 0.00 | 0.00 | 0.00 | 44 | 1017.8 |
| 20260906033041 | 66 | 82 | 2.6 | 5.2 | 0.00 | 0.00 | 0.00 | 44 | 1017.7 |
| 20260906031550 | 67 | 53 | 1.7 | 4.3 | 0.00 | 0.00 | 0.00 | 42 | 1017.8 |
| 20260906030046 | 68 | 53 | 1.7 | 3.5 | 0.00 | 0.00 | 0.00 | 42 | 1017.6 |
| 20260906024558 | 69 | 66 | 2.6 | 3.5 | 0.00 | 0.00 | 0.00 | 43 | 1017.4 |
| 20260906023053 | 71 | 70 | 1.7 | 4.3 | 0.00 | 0.00 | 0.00 | 38 | 1017.2 |
| 20260906021552 | 72 | 104 | 3.5 | 6.1 | 0.00 | 0.00 | 0.00 | 37 | 1017.1 |
| 20260906020050 | 73 | 96 | 1.7 | 4.3 | 0.00 | 0.00 | 0.00 | 38 | 1016.8 |
| 20260906014602 | 74 | 83 | 2.6 | 5.2 | 0.00 | 0.00 | 0.00 | 37 | 1016.6 |
| 20260906013045 | 76 | 85 | 1.7 | 5.2 | 0.00 | 0.00 | 0.00 | 33 | 1016.5 |
| 20260906011545 | 77 | 87 | 2.6 | 7.0 | 0.00 | 0.00 | 0.00 | 31 | 1016.4 |
| 20260906010043 | 78 | 72 | 5.2 | 7.8 | 0.00 | 0.00 | 0.00 | 30 | 1016.2 |
| 20260906004549 | 79 | 100 | 2.6 | 7.0 | 0.00 | 0.00 | 0.00 | 33 | 1016.2 |
| 20260906003102 | 79 | 87 | 3.5 | 7.0 | 0.00 | 0.00 | 0.00 | 28 | 1016.1 |
| 20260906001554 | 80 | 91 | 3.5 | 7.8 | 0.00 | 0.00 | 0.00 | 28 | 1016.1 |
| 20260905234548 | 80 | 75 | 4.3 | 8.7 | 0.00 | 0.00 | 0.00 | 28 | 1016.2 |
| 20260905233048 | 80 | 101 | 4.3 | 7.0 | 0.00 | 0.00 | 0.00 | 27 | 1016.2 |
| 20260905231544 | 80 | 80 | 4.3 | 8.7 | 0.00 | 0.00 | 0.00 | 29 | 1016.2 |